{"data":{"norad_id":58249,"epoch":"2026-05-24T22:08:07.495008Z","epoch_age_seconds":91813,"freshness":"FRESH","line1":"1 58249U 23171V   26144.92230897  .00000578  00000+0  30523-4 0  9995","line2":"2 58249  43.0019 214.6751 0001623 270.6590  89.4076 15.27574512141395","mean_motion":15.27574512,"eccentricity":0.0001623,"inclination_deg":43.0019,"raan_deg":214.6751,"arg_perigee_deg":270.659,"mean_anomaly_deg":89.4076,"bstar":3.0523e-5,"rev_number":14139,"period_min":94.267087378583,"perigee_km":481.95195596467,"apogee_km":484.17910230563,"semimajor_km":6861.2025291351,"source":"CELESTRAK","updated_at":"2026-05-25T13:38:18.583215Z"}}